Location: C.E.K. Mees Observatory
(42.7003°N, 77.4088°W)
Time: 06:01:07
(UTC-05:00)

OTV 5 (USA 277) - Pass Details

Date: 11 October 2017
Orbit: 404 x 417 km, 43.0° (Epoch: 07 September)

Event Time Altitude Azimuth Distance (km) Brightness Sun altitude
Rises 20:28:31 0° 253° (WSW) 2,348 ? -21.9°
Reaches altitude 10° 20:30:37 10° 252° (WSW) 1,487 ? -22.3°
Enters shadow 20:33:03 44° 240° (WSW) 587 ? -22.7°
